User: anonymous   Login
Location: Unspecified
(0.0000°N, 0.0000°E)
Time: 03:29:35
(UTC+00:00)
Language:

UHF F/O F4 - Orbit

View from above orbital plane
View from above orbital plane
View from above satellite
View from above satellite

Ground track
Ground track

The orbit data is extracted from the following two-line orbital elements,

1 23467U 95003A   15194.55960551 0.00000000  00000-0  00000-0 0    08
2 23467   8.9390  32.9242 0003534   5.5909 354.4386  1.00270000    01
Epoch (UTC): 13 July 2015 13:25:49
Eccentricity: 0.0003534
inclination: 8.9390°
perigee height: 35772 km
apogee height: 35801 km
right ascension of ascending node: 32.9242°
argument of perigee: 5.5909°
revolutions per day: 1.00270000
mean anomaly at epoch: 354.4386°
orbit number at epoch: 0

The dashed part of the orbit path shows where the satellite is in the earth's shadow,  

DLR